Location: Castillon
(43.0896°N, 0.2156°E)
Time: 19:05:18
(UTC+00:00)

Cosmos 1544 Rocket - Visible Passes

Search period start: 21 October 2021 00:00
Search period end: 31 October 2021 00:00
Orbit: 605 x 630 km, 82.5° (Epoch: 21 October)

Date Brightness Start Highest point End Pass type
(mag) Time Alt. Az. Time Alt. Az. Time Alt. Az.
21 Oct 3.6 05:36:22 10° N 05:40:48 87° E 05:45:10 10° S visible
21 Oct 3.7 18:08:08 10° S 18:12:27 52° E 18:16:48 10° NNE visible
21 Oct 6.6 19:47:59 10° WSW 19:50:38 15° WNW 19:53:16 10° NNW visible
22 Oct 6.6 04:16:50 10° NNE 04:19:28 15° ENE 04:22:03 10° ESE visible
22 Oct 3.6 18:24:49 10° S 18:29:17 85° W 18:33:46 10° N visible
23 Oct 5.8 04:32:50 10° NNE 04:36:34 26° ENE 04:40:15 10° SE visible
23 Oct 4.7 18:41:54 10° SSW 18:46:12 46° WNW 18:50:30 10° N visible
24 Oct 4.6 04:49:19 10° N 04:53:34 47° ENE 04:57:46 10° SSE visible
24 Oct 5.8 18:59:27 10° SW 19:03:12 26° WNW 19:06:57 10° NNW visible
25 Oct 3.5 05:06:03 10° N 05:10:29 87° E 05:14:50 10° S visible
25 Oct 3.7 17:37:49 10° S 17:42:08 52° E 17:46:29 10° NNE visible
25 Oct 6.6 19:17:42 10° WSW 19:20:19 15° WNW 19:22:57 10° NNW visible
26 Oct 6.5 03:46:31 10° NNE 03:49:08 15° ENE 03:51:43 10° ESE visible
26 Oct 3.7 05:23:02 10° NNW 05:27:17 49° W 05:31:29 10° SSW visible
26 Oct 3.7 17:54:30 10° S 17:58:58 84° W 18:03:27 10° N visible
27 Oct 5.7 04:02:31 10° NNE 04:06:14 26° ENE 04:09:55 10° SE visible
27 Oct 4.4 05:40:18 10° NNW 05:44:00 27° W 05:47:40 10° SSW visible
27 Oct 4.8 18:11:36 10° SSW 18:15:53 45° WNW 18:20:11 10° N visible
28 Oct 4.5 04:19:00 10° N 04:23:14 47° ENE 04:27:25 10° SSE visible
28 Oct 5.9 18:29:09 10° SW 18:32:53 26° WNW 18:36:38 10° NNW visible
29 Oct 3.5 04:35:44 10° N 04:40:09 88° E 04:44:29 10° S visible
29 Oct 6.6 18:47:24 10° WSW 18:50:00 15° WNW 18:52:36 10° NNW visible
30 Oct 6.4 03:16:11 10° NNE 03:18:48 15° ENE 03:21:23 10° ESE visible
30 Oct 3.6 04:52:43 10° NNW 04:56:57 49° W 05:01:08 10° SSW visible
30 Oct 3.7 17:24:11 10° S 17:28:38 84° W 17:33:08 10° N visible
